Fort Meade, MD

9:48 PM EST on November 22, 2017 (GMT -0500)
Tipton

Weather History for KFME - March, 2013

Change the Weather History Date:

Saturday, March 16, 2013

  Actual Average (KBWI) Record (KBWI)
Temperature  
Mean Temperature 44 °F -  
Max Temperature 55 °F 52 °F 85 °F (1945)
Min Temperature 33 °F 33 °F 14 °F (1911)
Degree Days  
Heating Degree Days 21    
Moisture  
Dew Point 33 °F    
Average Humidity 69    
Maximum Humidity 93    
Minimum Humidity 44    
Precipitation  
Precipitation 0.00 in - - ()
Sea Level Pressure  
Sea Level Pressure 29.80 in    
Wind  
Wind Speed 4 mph (ENE)    
Max Wind Speed 12 mph    
Max Gust Speed 20 mph    
Visibility 10 miles    
Events      
Averages and records for this station are not official NWS values.
T = Trace of Precipitation, MM = Missing Value Source: NWS Daily Summary

Daily Weather History Graph

Daily Weather History Graph

Search for Another Location

Airport or City:

Trip Planner

Search our weather history database for the weather conditions in past years. The results will help you decide how hot, cold, wet, or windy it might be!

Date:

Astronomy

Mar. 16, 2013 Rise Set
Actual Time 7:16 AM EDT 7:15 PM EDT
Civil Twilight 6:49 AM EDT 7:41 PM EDT
Nautical Twilight 6:18 AM EDT 8:13 PM EDT
Astronomical Twilight 5:47 AM EDT 8:44 PM EDT
Moon 9:47 AM EDT (3/16) No Moon Set
Length of Visible Light 12h 52m
Length of Day
11h 58m
Waxing Crescent, 23% of the Moon is Illuminated
Mar 16
Waxing Crescent
Mar 19
First Quarter
Mar 27
Full
Apr 3
Last Quarter
Apr 10
New

Hourly Weather History & Observations

Time (EDT) Temp. Windchill Dew Point Humidity Pressure Visibility Wind Dir Wind Speed Gust Speed Precip Events Conditions
12:09 AM 37.4 °F - 32.0 °F 81% 29.82 in 10.0 mi Calm Calm - N/A   Clear
12:30 AM 37.4 °F - 32.0 °F 81% 29.81 in 10.0 mi Calm Calm - N/A   Clear
12:51 AM 35.6 °F - 32.0 °F 87% 29.81 in 10.0 mi Calm Calm - N/A   Clear
1:09 AM 35.6 °F - 30.2 °F 81% 29.82 in 10.0 mi Calm Calm - N/A   Clear
1:51 AM 33.8 °F - 32.0 °F 93% 29.81 in 10.0 mi Calm Calm - N/A   Clear
2:09 AM 33.8 °F - 32.0 °F 93% 29.81 in 10.0 mi Calm Calm - N/A   Clear
2:30 AM 33.8 °F - 32.0 °F 93% 29.81 in 10.0 mi Calm Calm - N/A   Scattered Clouds
2:51 AM 33.8 °F - 30.2 °F 87% 29.82 in 10.0 mi Calm Calm - N/A   Mostly Cloudy
3:09 AM 33.8 °F - 32.0 °F 93% 29.82 in 10.0 mi Calm Calm - N/A   Overcast
3:30 AM 35.6 °F - 32.0 °F 87% 29.81 in 10.0 mi Calm Calm - N/A   Overcast
3:51 AM 35.6 °F - 32.0 °F 87% 29.81 in 10.0 mi Calm Calm - N/A   Overcast
4:09 AM 37.4 °F - 32.0 °F 81% 29.81 in 10.0 mi Calm Calm - N/A   Overcast
4:51 AM 37.4 °F - 32.0 °F 81% 29.81 in 10.0 mi Calm Calm - N/A   Overcast
5:09 AM 37.4 °F - 33.8 °F 87% 29.81 in 10.0 mi Calm Calm - N/A   Overcast
5:51 AM 37.4 °F - 33.8 °F 87% 29.81 in 10.0 mi Calm Calm - N/A   Overcast
6:30 AM 39.2 °F - 33.8 °F 81% 29.83 in 10.0 mi Calm Calm - N/A   Overcast
6:51 AM 41.0 °F - 33.8 °F 76% 29.83 in 10.0 mi Calm Calm - N/A   Overcast
7:12 AM 41.0 °F - 33.8 °F 76% 29.83 in 10.0 mi Calm Calm - N/A   Overcast
7:30 AM 41.0 °F 37.1 °F 33.8 °F 76% 29.83 in 10.0 mi East 5.8 mph - N/A   Overcast
7:51 AM 42.8 °F 39.3 °F 33.8 °F 70% 29.83 in 10.0 mi East 5.8 mph - N/A   Overcast
8:12 AM 42.8 °F 38.6 °F 32.0 °F 66% 29.83 in 10.0 mi East 6.9 mph - N/A   Overcast
8:30 AM 42.8 °F 40.1 °F 32.0 °F 66% 29.84 in 10.0 mi East 4.6 mph - N/A   Overcast
8:51 AM 42.8 °F 41.1 °F 32.0 °F 66% 29.84 in 10.0 mi ENE 3.5 mph - N/A   Overcast
9:12 AM 44.6 °F 43.1 °F 32.0 °F 61% 29.84 in 10.0 mi East 3.5 mph - N/A   Overcast
9:30 AM 44.6 °F 42.2 °F 33.8 °F 66% 29.84 in 10.0 mi ENE 4.6 mph - N/A   Overcast
9:51 AM 44.6 °F 41.4 °F 32.0 °F 61% 29.83 in 10.0 mi East 5.8 mph - N/A   Overcast
10:12 AM 44.6 °F 41.4 °F 32.0 °F 61% 29.81 in 10.0 mi East 5.8 mph - N/A   Overcast
10:30 AM 44.6 °F 39.2 °F 32.0 °F 61% 29.80 in 10.0 mi ESE 10.4 mph - N/A   Overcast
10:51 AM 46.4 °F 43.5 °F 32.0 °F 57% 29.80 in 10.0 mi ESE 5.8 mph - N/A   Overcast
11:12 AM 46.4 °F 41.9 °F 32.0 °F 57% 29.80 in 10.0 mi East 9.2 mph - N/A   Overcast
11:30 AM 48.2 °F - 32.0 °F 54% 29.77 in 10.0 mi SE 5.8 mph - N/A   Overcast
11:51 AM 50.0 °F - 32.0 °F 50% 29.77 in 10.0 mi East 10.4 mph - N/A   Overcast
12:12 PM 51.8 °F - 32.0 °F 47% 29.75 in 10.0 mi East 10.4 mph - N/A   Overcast
12:30 PM 51.8 °F - 32.0 °F 47% 29.75 in 10.0 mi East 11.5 mph - N/A   Overcast
12:51 PM 51.8 °F - 32.0 °F 47% 29.74 in 10.0 mi ESE 11.5 mph - N/A   Overcast
1:12 PM 53.6 °F - 32.0 °F 44% 29.74 in 10.0 mi East 4.6 mph - N/A   Mostly Cloudy
1:30 PM 51.8 °F - 32.0 °F 47% 29.73 in 10.0 mi SE 8.1 mph - N/A   Overcast
1:51 PM 53.6 °F - 33.8 °F 47% 29.71 in 10.0 mi ESE 10.4 mph 18.4 mph N/A   Overcast
2:12 PM 53.6 °F - 33.8 °F 47% 29.69 in 10.0 mi SE 9.2 mph - N/A   Overcast
2:33 PM 53.6 °F - 33.8 °F 47% 29.69 in 10.0 mi ESE 9.2 mph - N/A   Overcast
2:51 PM 55.4 °F - 33.8 °F 44% 29.69 in 10.0 mi East 8.1 mph 17.3 mph N/A   Overcast
3:12 PM 53.6 °F - 33.8 °F 47% 29.69 in 10.0 mi ESE 6.9 mph - N/A   Overcast
3:33 PM 53.6 °F - 35.6 °F 51% 29.68 in 10.0 mi East 5.8 mph - N/A   Overcast
3:51 PM 53.6 °F - 35.6 °F 51% 29.69 in 10.0 mi ESE 9.2 mph - N/A   Overcast
4:12 PM 55.4 °F - 35.6 °F 47% 29.68 in 10.0 mi East 9.2 mph - N/A   Overcast
4:33 PM 50.0 °F - 35.6 °F 58% 29.69 in 10.0 mi NE 8.1 mph 16.1 mph N/A   Overcast
4:51 PM 48.2 °F - 35.6 °F 62% 29.70 in 10.0 mi NE 10.4 mph - N/A   Overcast
5:12 PM 46.4 °F 41.1 °F 33.8 °F 62% 29.70 in 10.0 mi ENE 11.5 mph 18.4 mph N/A   Overcast
5:33 PM 46.4 °F 41.5 °F 33.8 °F 62% 29.71 in 10.0 mi NE 10.4 mph 17.3 mph N/A   Overcast
5:51 PM 44.6 °F 39.2 °F 33.8 °F 66% 29.71 in 10.0 mi NE 10.4 mph 19.6 mph N/A   Overcast
6:12 PM 44.6 °F 38.8 °F 33.8 °F 66% 29.74 in 10.0 mi NE 11.5 mph 17.3 mph N/A   Overcast
6:33 PM 44.6 °F 40.2 °F 33.8 °F 66% 29.75 in 10.0 mi NE 8.1 mph - N/A   Overcast
6:51 PM 42.8 °F 38.6 °F 33.8 °F 70% 29.75 in 10.0 mi NE 6.9 mph - N/A   Overcast
7:12 PM 42.8 °F 37.0 °F 32.0 °F 66% 29.77 in 10.0 mi NE 10.4 mph - N/A   Overcast
7:33 PM 41.0 °F 35.8 °F 32.0 °F 70% 29.79 in 10.0 mi NNE 8.1 mph - N/A   Overcast
7:51 PM 41.0 °F 36.4 °F 32.0 °F 70% 29.81 in 10.0 mi NNE 6.9 mph - N/A   Overcast
8:12 PM 39.2 °F 35.9 °F 32.0 °F 75% 29.82 in 10.0 mi NNE 4.6 mph - N/A   Overcast
8:33 PM 37.4 °F 31.4 °F 32.0 °F 81% 29.84 in 10.0 mi NNE 8.1 mph - N/A   Overcast
8:51 PM 37.4 °F 32.8 °F 32.0 °F 81% 29.85 in 10.0 mi NE 5.8 mph - N/A   Overcast
9:12 PM 39.2 °F 35.9 °F 32.0 °F 75% 29.89 in 10.0 mi NNE 4.6 mph - N/A   Overcast
9:33 PM 39.2 °F 33.6 °F 32.0 °F 75% 29.90 in 10.0 mi North 8.1 mph - N/A   Overcast
9:51 PM 37.4 °F 32.8 °F 32.0 °F 81% 29.90 in 10.0 mi NNE 5.8 mph - N/A   Overcast
10:12 PM 37.4 °F 32.1 °F 32.0 °F 81% 29.92 in 10.0 mi NNE 6.9 mph - N/A   Overcast
10:33 PM 37.4 °F 34.9 °F 32.0 °F 81% 29.93 in 10.0 mi NE 3.5 mph - N/A   Overcast
10:51 PM 37.4 °F 33.8 °F 32.0 °F 81% 29.94 in 10.0 mi North 4.6 mph - N/A   Overcast
11:12 PM 37.4 °F 34.9 °F 32.0 °F 81% 29.95 in 10.0 mi North 3.5 mph - N/A   Overcast
11:33 PM 37.4 °F 33.8 °F 32.0 °F 81% 29.95 in 10.0 mi North 4.6 mph - N/A   Overcast
11:54 PM 37.4 °F 33.8 °F 32.0 °F 81% 29.95 in 10.0 mi North 4.6 mph - N/A   Overcast